This is the latest recevied weather packets stored in our database for station/object SQ9IWE-13. If no packets are shown the sender has not sent any weather packets the latest 10 day(s).
| Time | Temp. | Humidity | Pressure | Rain* | Wind** | Luminosity | Snow |
|---|---|---|---|---|---|---|---|
| 1777657801 | 17.22° C | 47% | 1023.8 hPa | - | - | - | - |
| 1777657201 | 17.22° C | 47% | 1023.6 hPa | - | - | - | - |
| 1777656001 | 17.78° C | 45% | 1023.5 hPa | - | - | - | - |
| 1777655401 | 18.33° C | 45% | 1023.4 hPa | - | - | - | - |
| 1777654801 | 18.89° C | 44% | 1023.4 hPa | - | - | - | - |
| 1777654201 | 18.89° C | 44% | 1023.5 hPa | - | - | - | - |
| 1777653601 | 18.89° C | 44% | 1023.4 hPa | - | - | - | - |
| 1777653001 | 18.89° C | 43% | 1023.4 hPa | - | - | - | - |
| 1777652401 | 19.44° C | 43% | 1023.4 hPa | - | - | - | - |
| 1777651801 | 19.44° C | 43% | 1023.4 hPa | - | - | - | - |
| 1777651201 | 20° C | 42% | 1023.5 hPa | - | - | - | - |
| 1777650601 | 20° C | 42% | 1023.5 hPa | - | - | - | - |
| 1777650001 | 19.44° C | 42% | 1023.5 hPa | - | - | - | - |
| 1777649401 | 20° C | 42% | 1023.6 hPa | - | - | - | - |
| 1777648801 | 20° C | 42% | 1023.5 hPa | - | - | - | - |
| 1777648201 | 20° C | 42% | 1023.6 hPa | - | - | - | - |
| 1777647601 | 20° C | 42% | 1023.6 hPa | - | - | - | - |
| 1777647001 | 20° C | 43% | 1023.7 hPa | - | - | - | - |
| 1777645801 | 20.56° C | 42% | 1023.9 hPa | - | - | - | - |
| 1777645201 | 20° C | 42% | 1024 hPa | - | - | - | - |
| 1777644601 | 20.56° C | 42% | 1023.8 hPa | - | - | - | - |
| 1777644001 | 21.11° C | 41% | 1023.9 hPa | - | - | - | - |
| 1777643401 | 20.56° C | 41% | 1024.1 hPa | - | - | - | - |
| 1777642801 | 21.11° C | 41% | 1024 hPa | - | - | - | - |
| 1777642201 | 21.11° C | 40% | 1024 hPa | - | - | - | - |
* Rain since midnight (hover to see other rain measurements)
** Current wind speed in m/s (hover to see current wind gust speed)